EW9856 Weather Reports


time (UTC)temp
C
wind
direction
speed
KPH
gust
KPH
rain 1hr
cm
rain 24hr
cm
rain mn
cm
humidity
%
barometer
mb
20260503174549 13 250 4.8 16.1 0.00 0.00 0.00 80 1013.4
20260503173047 13 252 8.0 17.7 0.00 0.00 0.00 80 1013.4
20260503171547 12 225 3.2 9.7 0.00 0.00 0.00 83 1013.2
20260503081551 11 239 4.8 12.9 0.00 0.00 0.00 80 1012.1
20260503071601 11 245 6.4 12.9 0.00 0.00 0.00 80 1012.3
20260503054549 11 276 3.2 16.1 0.00 0.00 0.00 79 1012.7
20260503053036 11 252 1.6 11.3 0.00 0.00 0.00 80 1012.8
20260503051536 11 255 1.6 12.9 0.00 0.00 0.00 80 1012.8
20260503050038 11 256 3.2 12.9 0.00 0.00 0.00 79 1012.8
20260503044533 11 246 8.0 16.1 0.00 0.00 0.00 79 1012.6
20260503043031 11 260 6.4 12.9 0.00 0.00 0.00 79 1012.5
20260503041537 12 239 6.4 17.7 0.00 0.00 0.00 79 1012.4
20260503040030 12 271 4.8 16.1 0.00 0.00 0.00 79 1012.3
20260503034531 12 240 8.0 16.1 0.00 0.00 0.00 79 1012.2
20260503033031 12 265 4.8 12.9 0.00 0.00 0.00 78 1012.3
20260503031528 12 251 4.8 14.5 0.00 0.00 0.00 78 1012.1
20260503030033 12 267 3.2 11.3 0.00 0.00 0.00 77 1011.8
20260503024527 12 253 3.2 14.5 0.00 0.00 0.00 76 1011.8
20260503023026 12 275 4.8 19.3 0.00 0.00 0.00 76 1011.7
20260503021526 12 236 6.4 16.1 0.00 0.00 0.00 75 1011.7
20260503020025 13 256 8.0 16.1 0.00 0.00 0.00 74 1011.8
20260503014524 13 294 9.7 22.5 0.00 0.00 0.00 73 1011.8
20260503013025 13 240 11.3 20.9 0.00 0.00 0.00 71 1011.8
20260503011523 14 231 4.8 19.3 0.00 0.00 0.00 70 1011.8
20260503010025 15 250 8.0 19.3 0.00 0.00 0.00 69 1011.9
20260503004525 15 254 6.4 20.9 0.00 0.00 0.00 70 1012.0
20260503003020 15 219 9.7 19.3 0.00 0.00 0.00 67 1011.9
20260503001518 16 252 8.0 19.3 0.00 0.00 0.00 67 1011.9
20260503000014 16 250 12.9 22.5 0.00 0.00 0.00 66 1012.0
20260502234509 16 266 9.7 17.7 0.00 0.00 0.00 65 1012.1
20260502233007 16 242 11.3 20.9 0.00 0.00 0.00 68 1012.3
20260502231505 16 252 8.0 22.5 0.00 0.00 0.00 67 1012.6
20260502230009 16 248 14.5 22.5 0.00 0.00 0.00 66 1012.7
20260502224501 16 246 9.7 17.7 0.00 0.00 0.00 66 1012.8
20260502223101 16 285 6.4 22.5 0.00 0.00 0.00 67 1013.0
20260502221557 15 254 8.0 20.9 0.00 0.00 0.00 68 1013.3
20260502220055 15 278 6.4 20.9 0.00 0.00 0.00 70 1013.4
20260502214552 15 244 8.0 16.1 0.00 0.00 0.00 70 1013.5
20260502213052 15 243 9.7 27.4 0.00 0.00 0.00 71 1013.6
20260502211552 15 219 8.0 22.5 0.00 0.00 0.00 72 1013.6
20260502210104 15 265 8.0 19.3 0.00 0.00 0.00 72 1013.9
20260502204555 15 240 6.4 20.9 0.00 0.00 0.00 73 1014.0
20260502203045 14 238 8.0 17.7 0.00 0.00 0.00 76 1014.2
20260502201550 13 264 9.7 20.9 0.00 0.00 0.00 77 1014.4
20260502200042 13 244 3.2 19.3 0.00 0.00 0.00 78 1014.4
20260502194540 13 219 6.4 17.7 0.00 0.00 0.00 77 1014.4
20260502193039 13 283 11.3 16.1 0.00 0.00 0.00 78 1014.5
20260502191550 13 257 11.3 22.5 0.00 0.00 0.00 78 1014.5
20260502190040 13 234 9.7 19.3 0.00 0.00 0.00 80 1014.5
20260502184546 13 255 8.0 17.7 0.00 0.00 0.00 79 1014.5
20260502183052 13 252 4.8 16.1 0.00 0.00 0.00 80 1014.4
20260502181540 13 236 9.7 17.7 0.00 0.00 0.00 80 1014.4